sat.trackr.live / text

‹ back to catalog

STARLINK-35999

NORAD 66951 · 2025-286AC

PAYLOAD ACTIVE UNKNOWN

§ Identity

Operator
Country
US
Launch date
2025-12-07
Launch site
AFWTR
Launch vehicle
Mass (kg)
RCS (m²)

Purposes: comms

External: N2YO · Heavens-Above · Gunter

§ Orbital elements

Epoch: 2026-05-24T23:58:52.552704Z

Period
93.85 min
Inclination
53.1619°
Eccentricity
0.0001067
Mean motion
15.34421772 rev/d
Perigee alt
461.9 km
Apogee alt
463.4 km
Semi-major
6,840.8 km
B*
6.8915e-4
RAAN
3.7427°
Arg perigee
81.7999°
Mean anomaly
278.3125°
Rev number
2,710

§ Raw data

STARLINK-359991 66951U 25286AC  26144.99921936  .00022995  00000+0  68915-3 0  99932 66951  53.1619   3.7427 0001067  81.7999 278.3125 15.34421772 27108

JSON: /api/v1/satellites/66951 · /tle

For live sub-satellite position, see the globe view (requires WebGL).

§ Visibility from observer

Set your observer location to see the next 7 days of passes ≥ 10°. The values pass through the URL so the page stays shareable.

No JS? Fill the form by hand. The geolocation button needs JavaScript.